OTTER PUP 2

Satellite information

Favourite Embed

Satellite Type and Status

PAYLOADIN ORBIT

Key statistics

Satellite OTTER PUP 2 at a glance.

Uptime

75

Days in orbit

Revolutions

≈ 15.2

Per day

Orbit

SSO

Sun Synchronous Orbit

Inclination

97.4

Latest

Satellite identification and parameters

Extended collection of information and parameters for OTTER PUP 2.

Object identification

Identified? True

Debris? False

Object name: OTTER PUP 2

International designator: 2025-135K

Object number (NORAD): 64537

Object ID (CCSDS): 64537

Country: UNITED STATES OF AMERICA (US)

Current information (Y/N): Y

RCS size: MEDIUM

Orbital parameters

Period: 94.851 minutes

Inclination: 97.4497 deg

SMA: 6889.483 km

Apoapsis: 513.272 km

Periapsis: 509.424 km

RAAN: 1.5901 deg

Eccentricy: 0.00027927

Argument of periapsis: 84.5762 deg

Mean anomaly: 275.5791 deg

Mean motion: 15.18178526 rev/day

Mean motion (dot): 0.00010138 rev/day2

B* drag term: 0.00049902807 1/REarth

Two-line elements (TLE)

Creation date: Sept. 5, 2025, 10:27 a.m.

Reference frame: TEME

Reference center: EARTH

Epoch: Sept. 5, 2025, 5:46 a.m. UTC

TLE line 0: 0 OTTER PUP 2

TLE line 1: 1 64537U 25135K 25248.24089159 .00010138 00000-0 49903-3 0 9991

TLE line 2: 2 64537 97.4497 1.5901 0002793 84.5762 275.5791 15.18178526 11570

Live tracking on map

Real-time ground track for satellite OTTER PUP 2.

In-orbit conjunctions

There are no conjunctions computed for OTTER PUP 2, at the moment. Check back to stay up to date, as we update our databases every day.

Go to all conjunctions

Associated space launch

Dedicated rideshare flight to a sun-synchronous orbit with dozens of small microsatellites and nanosatellites for commercial and government customers.

OTTER PUP 2 was lifted into orbit during the mission ‘Falcon 9 Block 5 | Transporter 14 (Dedicated SSO Rideshare)’, on board a Falcon 9 space rocket.

The launch took place on June 23, 2025, 9:25 p.m. from Space Launch Complex 4E.

For more information about the launch, click the button.

Launch to space Falcon 9 Block 5 | Transporter 14 (Dedicated SSO Rideshare)
Falcon 9 Block 5 | Transporter 14 (Dedicated SSO Rideshare)

Agency: SpaceX

Status: Launch Successful

Launch date: June 23, 2025, 9:25 p.m. UTC

Rocket: Falcon 9

Launch pad: Space Launch Complex 4E

Location: Vandenberg SFB, CA, USA

...

Latest news about this satellite

News about space launch
A European spacecraft company flies its vehicle, then loses it after reentry

"This partial success reflects both ambition and the inherent risks of innovation."

News about space launch
The Exploration Company claims partial success of Mission Possible reentry spacecraft

The Exploration Company said it achieved “partial success” on a test flight of a reentry capsule but lost the spacecraft before it splashed down. The post The Exploration Company claims partial success of Mission Possible reentry spacecraft appeared firs...

News about space launch
The Exploration Company Declares Mission Possible a “Partial Success”

In-space logistics startup The Exploration Company has declared its Mission Possible flight both a partial success and a partial failure following a successful reentry. As The Exploration Company works toward the inaugural flight of its full-scale Nyx spa...


Newsletter sign-up

Weekly statistics, charts and insights to help you stay on top of the space industry.